Regional Weather Roundup
Issued by NWS Lake Charles, LA

Home | Current Version | Previous Version | Text Only | Print | Product List | Glossary On
Versions: 1 2 3 4 5 6 7 8 9 10 11 12 13 14 15 16 17 18 19 20 21 22 23 24 25 26 27
000
ASUS44 KLCH 211010
RWRLCH
RWRLCH
REGIONAL WEATHER ROUNDUP
NATIONAL WEATHER SERVICE LAKE CHARLES LA
500 AM CDT MON APR 21 2014

Note: "fair" indicates few or no clouds below 12,000 feet with no
significant weather and/or obstructions to visibility.


ACROSS SOUTHEAST TEXAS

CITY           SKY/WX    TMP DP  RH WIND       PRES   REMARKS
BEAUMONT       FOG       56  55  97 CALM      30.08S VSB 1/4
BEAUMONT CITY  FOG       58  58 100 CALM      30.09S VSB 1/4
ORANGE         PTSUNNY   56  56 100 CALM      30.10F
JASPER         CLOUDY    58  56  91 CALM      30.11S
$$

ACROSS CENTRAL LOUISIANA

CITY           SKY/WX    TMP DP  RH WIND       PRES   REMARKS
LEESVILLE      CLOUDY    61  54  77 CALM      30.09S
FULLERTON      CLOUDY    60  56  86 CALM      30.07S
ALEXANDRIA INT CLOUDY    60  56  86 CALM      30.08R
ESLER FIELD    CLOUDY    56  54  93 CALM      30.09S
DERIDDER       CLOUDY    60  56  86 CALM      30.10F
OAKDALE        MOSUNNY   51  50  95 CALM      30.10F
OPELOUSAS        N/A     55  55 100 SE3       30.10S FOG
$$

ACROSS SOUTHWEST AND SOUTH CENTRAL LOUISIANA

CITY           SKY/WX    TMP DP  RH WIND       PRES   REMARKS
SULPHUR        FOG       56  56 100 CALM      30.10F VSB 1/4
LAKE CHARLES   FOG       56  55  97 CALM      30.09S VSB 1/4
CHENNAULT INT  NOT AVBL
CAMERON PHI    SUNNY     66  63  88 CALM      30.10S
DEQUINCY         N/A     53  52  97 CALM      30.09S
JENNINGS       FOG       59  59 100 CALM      30.10S VSB<1/4
LAFAYETTE      CLEAR     61  60  97 CALM      30.11S FOG
NEW IBERIA       N/A     62  60  93 SE7       30.12R VSB 3/4
ABBEVILLE      FOG      N/A N/A N/A E3        30.11S VSB 1/4
PATTERSON      CLEAR     63  63 100 SE3       30.14F
SALT POINT     NOT AVBL
$$

SELECTED SITES ACROSS THE REGION

CITY           SKY/WX    TMP DP  RH WIND       PRES   REMARKS
HOUSTON BUSH   PTCLDY    61  60  97 S5        30.08R
HOUSTON HOBBY  PTCLDY    61  60  97 CALM      30.07S
GALVESTON      PTCLDY    65  65 100 SE5       30.08S
COLLEGE STAT   MOCLDY    64  62  93 S9        30.05F
CONROE         CLOUDY    62  61  96 CALM      30.08S
HUNTSVILLE     MOCLDY    65  60  84 CALM      30.06F
LUFKIN         PTCLDY    63  56  78 S3        30.07F
SHREVEPORT     MOCLDY    64  54  69 SW5       30.05S
MONROE         CLOUDY    61  56  83 S6        30.07F
NATCHEZ MS     CLEAR     57  54  88 S8        30.11S
BATON ROUGE    CLOUDY    63  60  90 SE5       30.12F FOG
N.O. INTL ARPT PTCLDY    61  57  87 CALM      30.13S
SLIDELL        MOCLDY    54  52  93 CALM      30.13S
$$

MARINE REPORTS

STATION/POSITION TIME  TEMP    WIND        PRES    VSBY  WAVE
                       AIR SEA DIR/SP/G                  HT/PER
                 (UTC) (F)     (DEG/KT/KT) (MB)    (MI)  (FT/S)
BUOY 30 S HIGH I 1000   67 67  160/  6/  8 1018.3S         1/ 3
SEA RIM ST PARK  1000   67     190/  5/  6 1019.3R
PORT ARTHUR      1000      69  200/  2/  3 1018.8S
SABINE PASS N    1000   65 70  210/  3/  3 1018.6F
TEXAS POINT      1000   67 70  190/  6/  7 1018.9S
CALCASIEU PASS   1000   68 70  220/  4/  5 1019.9F
LK CHARLES BEACH 1000   62 68              1019.5F
MARSH ISLAND     0900   71     190/  3/  4   N/A
FRESH WATER LOCK 1000   65 71     CALM     1019.1F
AMERADA PASS     1000   64 62  120/  3/  5 1019.8F
$$



USA.gov is the U.S. government's official web portal to all federal, state and local government web resources and services.